Weather History for Harare Kutsaga, Zimbabwe

Change the Weather History Date:

Tuesday, April 1, 2014

  Actual Average Record
Temperature  
Mean Temperature 68 °F -  
Max Temperature 81 °F 78 °F 87 °F (1998)
Min Temperature 54 °F 54 °F 51 °F (2008)
Cooling Degree Days 2    
Growing Degree Days 18 (Base 50)    
Moisture  
Dew Point 55 °F    
Average Humidity 59    
Maximum Humidity 88    
Minimum Humidity 32    
Precipitation  
Precipitation 0.00 in 0.05 in - ()
Sea Level Pressure  
Sea Level Pressure 30.15 in    
Wind  
Wind Speed 5 mph ()    
Max Wind Speed 10 mph    
Max Gust Speed -    
Visibility 12.6 miles    
Events      
Averages and records for this station are not official NWS values.
T = Trace of Precipitation, MM = Missing Value Source: Averaged Metar Reports

Daily Weather History Graph

Daily Weather History Graph

Search for Another Location

Airport:

Trip Planner

Search our weather history database for the weather conditions in past years. The results will help you decide how hot, cold, wet, or windy it might be!

Date:

Astronomy

Apr. 01, 2014 Rise Set
Actual Time 6:01 AM CAT 5:56 PM CAT
Civil Twilight 5:39 AM CAT 6:18 PM CAT
Nautical Twilight 5:14 AM CAT 6:43 PM CAT
Astronomical Twilight 4:49 AM CAT 7:08 PM CAT
Moon 7:24 AM CAT (4/1) 7:15 PM CAT (4/1)
Length of Visible Light 12h 38m
Length of Day
11h 54m
Waxing Crescent, 3% of the Moon is Illuminated
Apr 1
Waxing Crescent
Apr 7
First Quarter
Apr 15
Full
Apr 22
Last Quarter
Apr 29
New

Hourly Weather History & Observations

Time (CAT) Temp. Dew Point Humidity Pressure Visibility Wind Dir Wind Speed Gust Speed Precip Events Conditions
1:00 AM 62.6 °F 53.6 °F 72% 30.15 in - ENE 10.4 mph - N/A   Clear
2:00 AM 60 °F 53 °F 71%  in 19 mi East 4.6 mph - -   Partly Cloudy
2:00 AM 59.0 °F 53.6 °F 82% 30.15 in - East 4.6 mph - N/A   Clear
5:00 AM 55 °F 53 °F 88%  in 19 mi East 3.5 mph - -   Scattered Clouds
5:00 AM 55.4 °F 51.8 °F 88% 30.18 in - East 3.5 mph - N/A   Clear
6:00 AM 55.4 °F 51.8 °F 88% 30.18 in - ENE 5.8 mph - N/A   Clear
8:00 AM 65 °F 54 °F 59%  in 19 mi NNE 6.9 mph - -   Mostly Cloudy
8:00 AM 66.2 °F 53.6 °F 64% 30.21 in - NNE 6.9 mph - N/A   Clear
9:00 AM 71.6 °F 53.6 °F 53% 30.21 in - NE 8.1 mph - N/A   Clear
10:00 AM 73.4 °F 51.8 °F 47% 30.21 in 6.2 mi North 5.8 mph - N/A   Mostly Cloudy
11:00 AM 75 °F 54 °F 38%  in 19 mi NNW 4.6 mph - -   Scattered Clouds
11:00 AM 75.2 °F 55.4 °F 50% 30.21 in 6.2 mi Variable 5.8 mph - N/A   Mostly Cloudy
12:00 PM 78.8 °F 53.6 °F 42% 30.15 in 6.2 mi Variable 4.6 mph - N/A   Scattered Clouds
1:00 PM 78.8 °F 51.8 °F 39% 30.12 in 6.2 mi Variable 3.5 mph - N/A   Scattered Clouds
2:00 PM 78 °F 54 °F 32%  in 19 mi South 5.8 mph - -   Mostly Cloudy
2:00 PM 77.0 °F 53.6 °F 44% 30.12 in - South 5.8 mph - N/A   Clear
3:00 PM 77.0 °F 53.6 °F 44% 30.09 in - WSW 4.6 mph - N/A   Clear
4:00 PM 77.0 °F 53.6 °F 44% 30.09 in - WSW 4.6 mph - N/A   Clear
5:00 PM 77 °F 54 °F 34%  in 19 mi Calm Calm - -   Mostly Cloudy
5:00 PM 77.0 °F 53.6 °F 44% 30.09 in - Calm Calm - N/A   Clear
6:00 PM 69.8 °F 59.0 °F 68% 30.09 in - East 4.6 mph - N/A   Clear
7:00 PM 68.0 °F 59.0 °F 73% 30.12 in - NE 5.8 mph - N/A   Clear
8:00 PM 67 °F 58 °F 65%  in 19 mi North 6.9 mph - -   Scattered Clouds
8:00 PM 68.0 °F 57.2 °F 68% 30.12 in - North 6.9 mph - N/A   Clear
9:00 PM 69.8 °F 59.0 °F 68% 30.15 in 6.2 mi NNE 5.8 mph - N/A   Scattered Clouds
10:00 PM 69.8 °F 57.2 °F 64% 30.15 in 6.2 mi NE 5.8 mph - N/A   Scattered Clouds
11:00 PM 68.0 °F 55.4 °F 64% 30.15 in 6.2 mi NE 8.1 mph - N/A   Scattered Clouds